Regional Weather Roundup
Issued by NWS

Home | Current Version | Previous Version | Graphics & Text | Print | Product List | Glossary On
Versions: 1 2 3 4 5 6 7 8 9 10 11 12 13 14 15 16 17 18 19 20 21 22 23 24 25 26 27 28 29 30 31 32 33 34 35 36 37 38 39 40 41 42 43 44 45 46 47 48 49 50
000
ASUS43 KDMX 240707
RWRIA

WEATHER ROUNDUP FOR IOWA
NATIONAL WEATHER SERVICE DES MOINES IA
200 AM CDT SUN MAY 24 2015

NOTE: "FAIR" INDICATES FEW OR NO CLOUDS BELOW 12,000 FEET WITH NO
SIGNIFICANT WEATHER AND/OR OBSTRUCTIONS TO VISIBILITY.

* - THESE STATIONS ARE NOT NWS STATIONS...THUS NOT UNDER NWS
QUALITY CONTROL.  THEY ALSO DO NOT REPORT WEATHER SUCH
AS PRECIPITATION OR FOG.

IAZ001>003-012>014-020>022-031>034-043>046-240800-
   NORTHWEST IOWA

CITY           SKY/WX    TMP DP  RH WIND       PRES   REMARKS
CARROLL *      CLOUDY    63  57  82 SE6       30.06R
CHEROKEE *     RAIN      61  59  94 CALM      30.07R
DENISON *      CLOUDY    61  61 100 SE8       30.04R FOG
LE MARS *      LGT RAIN  59  59 100 NE5       30.06F
ORANGE CITY *  RAIN      57  57 100 E3        30.06F
SHELDON *      LGT RAIN  59  55  88 NE5       30.06S
SIOUX CITY     LGT RAIN  61  58  90 E7        30.04S
SPENCER        CLOUDY    62  57  83 E7        30.08R
STORM LAKE *   LGT RAIN  61  57  88 SE8G14    30.08R
$$

IAZ055>058-069>071-079>083-090>094-240800-
   SOUTHWEST IOWA

CITY           SKY/WX    TMP DP  RH WIND       PRES   REMARKS
ATLANTIC *     CLOUDY    61  59  94 SE5       30.04R
AUDUBON *      RAIN      61  55  82 SE5       30.06S
CLARINDA *     CLOUDY    61  59  94 SE10      30.02S
COUNCIL BLFS * LGT RAIN  61  61 100 E7        30.03F
CRESTON *      CLOUDY    59  59 100 SE13      30.04F
HARLAN  *      DRIZZLE   59  59 100 CALM      30.07F
LAMONI         RAIN      61  58  90 SE12G20   30.05F FOG
RED OAK *      CLOUDY    61  61 100 CALM      30.02F
SHENANDOAH *   LGT RAIN  61  61 100 N3        30.02F
$$

IAZ047>049-059>061-072>074-084-240800-
   CENTRAL IOWA

CITY           SKY/WX    TMP DP  RH WIND       PRES   REMARKS
AMES           LGT RAIN  64  53  67 SE6       30.07S
ANKENY *       CLOUDY    66  54  63 SE6       30.06F
CHARITON *     MOCLDY    63  55  77 S15G24    30.08R
DES MOINES     LGT RAIN  67  53  61 SE10      30.06F
GRINNELL*      CLOUDY    63  55  77 SE6       30.10S
KNOXVILLE *    CLOUDY    64  52  63 SE8       30.07S
MARSHALLTOWN   CLOUDY    65  51  60 SE7       30.09S
PELLA *        CLOUDY    64  57  77 E3        30.09F
PERRY *        LGT RAIN  64  54  68 SE10      30.05F
$$

IAZ004>006-015-016-023>025-035-036-240800-
   NORTH CENTRAL IOWA

CITY           SKY/WX    TMP DP  RH WIND       PRES   REMARKS
ALGONA *       CLOUDY    63  57  82 E5        30.09S
CLARION *      MOCLDY    64  54  68 SE10      30.08S
ESTHERVILLE    CLOUDY    61  54  77 E7        30.08S
FORT DODGE *   CLOUDY    63  54  72 SE6       30.07F
MASON CITY     CLOUDY    63  53  70 NE5       30.11S
FOREST CITY *  CLOUDY    61  54  77 E5        30.10S
IOWA FALLS *   RAIN      63  52  67 SE14G24   30.09F
$$

IAZ007>011-017>019-026>030-037>042-050>054-066-240800-
   NORTHEAST IOWA

CITY           SKY/WX    TMP DP  RH WIND       PRES   REMARKS
CEDAR RAPIDS   CLOUDY    66  51  58 S5        30.11S
CHARLES CITY * CLOUDY    64  50  59 E7        30.12S
CLINTON *      CLOUDY    63  48  59 SE8       30.17S
DECORAH *      CLOUDY    63  48  59 SE5       30.13S
DUBUQUE        MOCLDY    62  49  62 SE8       30.15S
MONTICELLO *   CLOUDY    64  50  59 SE7       30.13S
OELWEIN *      CLOUDY    63  50  63 E6        30.13S
WATERLOO       CLOUDY    63  52  67 E5        30.11R
$$

IAZ064-065-067-068-078-240800-
   EAST CENTRAL IOWA

CITY           SKY/WX    TMP DP  RH WIND       PRES   REMARKS
DAVENPORT      CLOUDY    68  47  46 S10       30.15S
IOWA CITY      CLOUDY    65  51  60 SE6       30.13S
MT. PLEASANT * CLOUDY    64  52  63 SE8       30.13R
MUSCATINE *    CLOUDY    63  55  77 CALM      30.13R
QUAD CITIES    CLOUDY    66  50  56 SE5       30.14S
$$

IAZ062-063-075>077-085>089-095>099-240800-
   SOUTHEAST IOWA

CITY           SKY/WX    TMP DP  RH WIND       PRES   REMARKS
BURLINGTON     CLOUDY    68  52  56 SE8       30.13S
FAIRFIELD *    CLOUDY    66  52  59 SE13      30.11S
FORT MADISON * CLOUDY    66  52  59 SE5       30.13F
KEOKUK *       CLOUDY    66  54  63 SE6       30.12S
OSKALOOSA *    CLOUDY    64  55  72 SE7       30.10S
CENTERVILLE *  CLOUDY    59  59 100 S13G18    30.11R
OTTUMWA        CLOUDY    64  54  69 SE7       30.09F
WASHINGTON *   CLOUDY    66  52  59 SE8       30.12F
$$

ABBREVIATIONS USED IN REMARKS
   TC - TEMPERATURES IN CELSIUS
  WCI - WIND CHILL INDEX
   HX - HEAT INDEX
  VSB - VISIBILITY
$$




USA.gov is the U.S. government's official web portal to all federal, state and local government web resources and services.